Theta_e
288 288 288 288 287 287 287 287 287 287 287 286 284 283 282 281 281 280 280 280 280 279 279 278 278 277 277 276 276 276 275 275 274 274 273 273 273 273 272 272 272 272
288 288 288 288 287 287 287 287 287 287 287 287 286 284 283 282 281 280 280 280 279 279 279 278 278 277 277 276 276 275 275 274 274 273 273 273 272 272 272 272 272 272
289 288 288 288 287 287 287 287 287 287 287 287 286 285 284 283 282 281 280 280 279 279 279 278 278 277 277 276 276 275 275 274 274 273 273 272 272 272 272 272 272 271
289 289 288 288 288 287 287 287 287 287 287 287 287 286 285 284 283 282 281 280 279 279 279 278 278 277 276 276 276 275 274 274 274 273 273 272 272 272 272 271 271 271
289 289 289 288 288 288 287 287 287 287 287 287 287 286 285 284 283 282 281 280 279 279 278 278 277 277 276 276 275 275 274 274 273 273 273 272 272 272 272 271 271 271
290 289 289 289 288 288 287 287 287 287 287 286 286 286 286 285 284 283 281 280 279 279 278 278 277 277 276 275 275 274 274 274 273 273 272 272 272 272 271 271 271 270
290 290 289 289 288 288 288 287 287 287 287 286 286 286 286 285 284 283 282 281 279 279 278 278 277 276 276 275 275 274 274 273 273 273 272 272 272 272 271 271 271 270
291 290 290 289 289 288 288 287 287 287 286 286 286 286 286 285 284 283 282 281 279 278 278 277 277 276 276 275 274 274 274 273 273 273 272 272 272 272 271 271 271 270
291 290 290 289 289 288 288 287 287 287 286 286 286 285 285 285 284 283 282 280 279 278 278 277 277 276 275 275 274 274 274 273 273 273 272 272 272 271 271 271 270 270
291 290 290 289 289 288 288 287 287 287 286 286 286 285 285 284 284 283 281 280 279 278 278 277 276 276 275 274 274 274 273 273 273 273 272 272 272 271 271 271 270 270
291 291 290 289 289 288 288 288 287 286 286 285 285 285 284 284 283 282 281 279 279 278 277 277 276 275 275 274 274 274 273 273 273 273 272 272 272 271 271 271 270 270
292 291 291 290 289 288 288 287 287 286 286 285 285 284 284 283 282 281 280 279 278 278 277 276 276 275 275 274 274 274 273 273 273 273 272 272 272 271 271 271 270 270
292 291 291 290 289 289 288 287 287 286 285 285 284 284 283 282 281 280 279 278 278 277 277 276 276 275 275 274 274 274 273 273 273 272 272 272 271 271 271 271 270 270
291 291 291 290 289 289 288 287 286 286 285 284 283 283 282 281 280 279 278 278 277 277 276 276 275 275 275 274 274 274 273 273 273 272 272 272 271 271 271 270 270 270
291 291 290 290 289 288 287 286 285 285 284 283 282 282 281 280 280 279 278 277 277 276 276 276 275 275 275 274 274 274 273 273 272 272 272 271 271 271 270 270 270 269
290 289 289 289 288 287 286 285 284 283 283 282 281 281 280 280 279 278 277 277 276 276 276 275 275 275 274 274 274 273 273 272 272 272 271 271 271 270 270 270 269 269
288 288 287 287 286 285 285 284 283 282 282 281 280 280 279 279 278 277 277 276 276 276 275 275 275 274 274 274 274 273 273 272 272 271 271 271 270 270 269 269 269 269
286 285 285 285 284 283 283 282 282 281 280 280 279 279 278 278 277 277 276 276 276 275 275 275 274 274 274 274 274 274 273 272 272 271 271 270 270 269 269 269 268 268
284 283 283 283 282 282 281 281 280 280 279 279 278 278 277 277 277 276 276 275 275 275 274 274 274 273 274 274 274 274 274 273 272 271 270 270 269 269 268 268 268 267
282 282 281 281 280 280 280 279 279 279 278 278 277 277 276 276 276 275 275 275 274 274 274 273 273 273 273 274 274 275 275 274 272 271 270 269 269 268 268 268 267 267
280 280 280 279 279 278 278 278 278 278 277 277 276 276 276 275 275 275 274 274 274 274 273 273 272 272 273 274 275 275 275 274 273 271 270 269 269 268 268 268 267 267
279 279 278 278 278 277 277 277 277 276 276 275 275 275 275 274 274 274 274 273 273 273 272 272 272 272 273 274 274 274 274 274 273 272 270 269 269 268 268 268 268 267
277 277 277 277 277 276 276 276 275 275 275 274 274 274 273 273 273 273 272 272 272 272 272 271 271 271 272 273 273 273 273 272 272 272 271 270 269 269 268 268 268 267
276 276 276 276 276 275 275 275 274 274 274 273 273 273 272 272 272 271 271 271 271 271 271 271 271 271 272 272 272 272 272 272 271 271 270 270 269 269 269 268 268 267
276 275 275 275 275 275 274 274 273 273 273 272 272 272 271 271 271 270 270 270 270 270 270 270 270 271 270 270 271 271 271 271 271 270 269 269 268 268 268 267 267 267
274 274 274 274 274 273 273 273 272 272 271 271 271 270 270 270 270 270 269 269 270 270 270 269 269 269 269 269 269 270 270 270 270 270 269 268 268 267 267 267 266 266
Wind_Speed
46 45 45 45 45 45 44 44 43 43 42 42 42 43 43 44 44 44 46 47 47 47 46 45 44 43 41 40 39 39 38 37 36 34 33 33 32 30 30 30 29 28
47 47 46 46 45 45 46 45 45 43 42 43 43 42 42 42 43 44 46 46 46 46 46 45 44 44 42 41 40 39 37 36 35 34 33 32 31 30 30 30 29 29
46 47 47 47 47 47 46 45 44 43 43 43 42 42 41 41 42 43 45 46 46 46 46 45 44 44 43 42 41 40 38 36 35 33 32 32 31 31 31 30 30 29
46 47 47 48 48 47 46 44 43 43 44 43 43 42 41 40 40 42 43 45 46 46 45 44 44 43 43 42 41 40 38 36 35 33 31 31 31 31 31 30 30 30
44 45 46 46 47 46 44 43 43 44 44 44 43 41 40 39 39 41 42 44 45 45 43 43 43 42 42 41 40 39 37 34 34 33 32 31 31 31 31 30 30 31
42 43 44 45 45 44 43 43 44 44 43 44 42 40 39 38 39 40 41 43 44 43 42 42 42 41 41 41 40 38 37 35 33 33 33 32 32 32 31 31 31 31
40 41 41 42 42 41 41 43 43 43 43 42 41 40 38 38 38 39 40 42 42 42 42 42 42 42 41 40 39 38 37 35 34 33 33 32 32 32 32 31 32 32
39 39 39 39 39 39 40 41 41 41 41 39 38 39 38 38 38 38 39 40 41 42 42 41 42 42 41 40 40 38 36 35 34 33 32 31 30 30 32 32 32 33
36 37 37 37 37 38 39 40 40 39 38 37 38 38 37 37 38 38 38 39 40 40 41 41 41 42 41 41 40 39 37 35 34 33 33 31 31 31 31 32 32 33
34 34 35 35 36 37 37 38 38 37 36 36 37 36 36 36 37 37 37 38 39 40 40 41 41 41 41 40 40 39 37 35 34 34 33 33 33 32 32 32 33 33
32 33 33 34 35 35 35 35 35 35 35 35 35 35 35 35 35 36 37 38 40 40 41 41 41 41 41 40 39 38 37 36 35 34 34 33 33 33 33 33 33 33
31 32 32 33 33 33 33 33 33 33 33 33 34 34 34 34 35 36 37 39 40 40 40 40 40 40 40 39 38 37 36 35 35 34 34 33 33 33 33 33 34 34
30 31 31 31 31 31 31 30 30 31 31 31 32 32 33 33 34 35 36 38 39 39 39 39 39 39 39 38 37 36 36 35 35 34 32 32 32 33 33 33 33 33
28 28 27 27 26 26 26 27 27 28 29 29 30 31 33 34 35 35 35 36 37 37 38 38 38 38 38 38 37 36 36 36 35 33 32 31 31 32 32 33 33 33
24 22 21 20 20 21 22 23 24 24 26 27 28 30 32 33 33 34 34 34 34 35 36 36 37 38 38 38 37 36 36 35 33 32 32 32 31 31 31 32 32 33
18 16 15 15 15 17 18 19 20 22 23 25 27 28 30 31 31 32 32 33 33 34 35 36 36 37 37 37 37 37 36 33 32 32 32 31 31 31 31 31 32 33
13 13 13 13 13 14 16 17 19 20 22 24 25 26 28 29 30 30 31 32 33 33 34 34 35 36 35 33 32 34 34 33 32 32 31 31 31 31 31 31 31 32
11 11 12 12 13 14 15 16 18 19 21 23 24 25 26 27 28 29 30 31 31 32 33 33 33 34 33 30 29 29 31 32 33 32 31 32 32 32 31 31 31 31
11 11 11 12 12 13 14 15 17 19 20 22 23 24 25 26 27 28 28 29 29 30 31 31 31 31 30 28 28 27 26 29 32 32 32 32 32 32 32 31 31 30
10 10 10 10 11 12 13 15 17 18 20 21 22 22 23 25 25 26 26 27 29 29 29 28 29 30 27 26 26 25 24 25 28 30 32 32 32 31 31 31 31 31
8 8 8 9 10 11 12 14 16 17 18 19 20 21 22 23 24 25 25 26 27 28 27 26 28 29 26 24 24 23 23 24 25 26 28 30 31 32 32 31 31 31
7 8 8 9 10 11 12 13 14 15 16 17 17 19 20 21 22 23 24 25 25 26 26 25 27 27 24 22 22 22 22 24 24 24 24 26 27 29 29 30 30 29
8 8 9 10 10 11 12 13 13 14 15 15 16 17 18 19 20 21 22 23 24 24 25 26 27 26 23 20 21 21 22 24 25 24 24 24 24 24 25 26 26 26
10 10 10 10 11 12 12 13 13 13 14 15 16 16 16 17 18 18 19 21 22 24 25 25 26 26 23 21 21 22 23 25 26 25 24 23 23 23 24 25 26 26
12 11 11 11 12 12 12 13 12 12 13 14 14 15 14 15 16 16 17 18 20 21 22 23 24 24 24 23 22 22 23 24 25 25 24 24 24 24 25 26 26 27
13 13 12 12 12 12 12 11 11 11 11 12 12 13 12 12 13 14 15 15 17 18 19 21 22 23 24 23 22 22 23 24 25 24 23 23 24 25 25 25 26 27
Wind_Direction
233 233 234 234 234 234 234 233 231 230 228 225 223 222 222 221 220 217 216 215 214 214 213 212 211 210 209 208 207 207 206 207 207 207 206 206 206 205 205 206 207 207
235 235 235 236 236 236 236 235 234 233 232 231 228 227 226 224 222 219 217 216 215 215 214 213 212 210 209 207 206 206 206 206 206 205 206 207 208 207 207 208 208 208
236 235 235 236 236 237 237 236 236 235 235 235 232 230 228 225 223 220 218 217 216 216 215 214 212 211 209 207 206 205 205 204 203 203 203 205 207 208 209 210 209 209
236 236 236 237 238 238 238 237 237 237 236 236 235 232 229 226 223 221 218 217 216 216 215 214 212 211 209 207 206 205 205 204 203 201 201 204 206 208 209 210 210 210
238 238 238 238 239 239 239 238 238 237 236 236 235 233 230 226 223 220 218 216 216 215 215 213 211 210 208 206 205 205 203 203 202 200 201 203 205 207 208 208 210 211
239 239 239 239 239 239 238 238 238 237 237 237 236 234 231 227 224 221 217 215 214 214 213 211 210 209 208 206 205 205 204 202 202 200 201 203 205 207 208 208 209 210
241 240 240 240 239 239 238 238 238 238 237 237 236 234 231 228 225 221 218 215 213 212 212 210 209 208 207 205 204 204 204 203 202 200 201 203 205 207 208 209 210 210
243 243 241 241 240 238 238 238 238 238 237 236 235 233 231 229 226 221 217 214 212 211 211 210 208 207 206 204 203 203 203 202 202 201 201 204 205 206 208 209 210 211
246 244 243 241 239 238 238 238 238 237 236 234 234 233 230 228 226 221 216 213 211 210 210 209 208 207 205 205 204 203 202 202 202 202 203 205 206 206 208 209 210 211
248 246 244 241 239 238 238 238 238 236 234 233 232 231 229 226 223 219 215 211 210 209 209 209 207 206 205 205 205 204 203 202 202 204 206 207 208 208 208 208 209 210
249 247 244 241 239 238 237 237 237 235 233 232 230 228 226 223 219 216 213 211 210 209 209 208 207 206 205 205 206 205 204 204 205 206 208 209 210 211 210 210 211 211
251 248 245 243 240 238 238 237 236 234 232 230 227 224 222 220 216 213 212 211 211 210 209 209 208 207 206 206 205 205 205 206 207 208 209 210 211 212 212 213 213 213
253 250 247 245 242 240 239 237 235 232 229 227 225 222 219 217 216 213 212 212 212 211 210 210 208 207 207 206 206 205 206 207 207 208 209 211 212 214 214 215 215 214
258 254 251 248 245 241 238 234 232 229 227 225 223 221 219 218 216 214 213 213 213 213 212 211 209 208 208 207 206 206 207 207 208 208 210 211 213 216 216 216 216 216
264 260 254 249 244 238 233 229 227 226 226 225 223 221 220 219 218 215 213 213 213 213 213 211 210 210 209 207 207 207 207 207 208 208 210 213 214 216 217 217 218 218
268 261 253 245 239 234 229 226 226 225 224 224 222 221 220 218 218 216 214 214 213 212 212 212 212 212 211 209 207 207 207 206 207 209 212 214 215 216 217 218 219 221
267 258 252 245 239 235 230 227 227 224 222 222 221 220 219 218 218 216 215 215 213 212 212 211 212 213 211 208 206 206 207 206 208 211 213 215 216 216 215 217 219 222
269 261 256 249 241 235 231 227 225 223 221 220 220 220 219 218 218 217 216 215 213 212 212 211 212 212 209 205 203 204 206 210 212 214 216 217 218 217 217 217 218 222
273 264 254 246 239 235 232 229 227 225 223 223 223 223 220 219 219 218 215 213 212 212 212 211 211 209 205 203 204 204 206 212 217 219 219 220 219 219 220 220 221 224
271 258 247 241 237 234 232 231 230 229 229 228 227 225 222 220 219 217 216 214 212 212 211 210 209 207 204 202 206 209 210 215 220 222 223 224 224 224 224 225 228 230
265 254 245 241 239 236 235 234 234 234 232 231 229 227 225 224 221 218 217 215 214 212 210 209 209 208 204 204 210 215 218 221 225 225 224 225 227 228 229 230 233 234
266 260 255 251 247 244 242 240 239 238 235 233 231 229 227 225 222 220 218 216 214 212 209 209 212 210 207 210 216 220 224 228 230 229 224 221 222 223 224 227 230 233
281 278 271 265 259 255 253 251 248 245 240 236 232 228 225 223 221 220 218 216 214 213 211 212 214 214 213 217 223 226 230 234 235 234 231 227 225 224 224 226 227 229
298 292 284 277 270 266 263 260 255 250 244 239 234 229 225 222 220 219 218 218 217 216 217 218 221 224 225 226 229 232 235 238 238 237 236 234 234 235 234 235 235 235
305 298 290 283 277 273 268 262 258 252 245 240 233 227 223 221 218 216 216 219 221 223 225 227 232 236 237 235 236 238 239 240 239 237 235 236 237 239 240 241 241 242
305 299 292 286 281 278 272 264 256 247 239 234 227 221 217 216 216 217 219 225 229 233 237 240 242 246 247 244 242 242 242 241 240 237 234 234 236 237 239 241 241 242